Location: Unspecified
(47.6579°N, 23.5637°E)
Time: 12:54:12
(UTC+02:00)

Envisat - Pass Details

Date: 01 December 2021
Orbit: 764 x 766 km, 98.2° (Epoch: 23 January)

Event Time Altitude Azimuth Distance (km) Brightness Sun altitude
Rises 17:20:24 0° 193° (SSW) 3,219 6.8 -7.4°
Reaches altitude 10° 17:22:57 10° 204° (SSW) 2,298 6.2 -7.8°
Maximum altitude 17:27:24 30° 265° (W) 1,339 5.1 -8.5°
Drops below altitude 10° 17:31:53 10° 327° (NNW) 2,314 5.6 -9.1°
Sets 17:34:28 0° 338° (NNW) 3,245 6.3 -9.6°
